Location: Bartlow
(52.0833°N, 0.3167°E)
Time: 19:17:42
(UTC+00:00)

Cosmos-2242 - Pass Details

Date: 26 September 2023
Orbit: 583 x 608 km, 82.5° (Epoch: 08 December)

Event Time Altitude Azimuth Distance (km) Brightness Sun altitude
Exits shadow 02:43:59 48° 33° (NNE) 772 3.8 -27.5°
Drops below altitude 10° 02:47:09 10° 15° (NNE) 1,916 6.2 -27.1°
Sets 02:49:22 0° 13° (NNE) 2,823 7.2 -26.8°
